Regional Weather Roundup
Issued by NWS

Home | Current Version | Previous Version | Text Only | Print | Product List | Glossary Off
Versions: 1 2 3 4 5 6 7 8 9 10 11 12 13 14 15 16 17 18 19 20 21 22 23 24 25 26 27 28 29 30 31 32 33 34 35 36 37 38 39 40 41 42 43 44 45 46 47 48 49 50

000
ASUS45 KBOU 191507
RWRCO

WEATHER ROUNDUP FOR COLORADO
NATIONAL WEATHER SERVICE DENVER/BOULDER CO
900 AM MDT WED JUL 19 2017

NOTE: "FAIR" INDICATES FEW OR NO CLOUDS BELOW 12000 FEET WITH NO
SIGNIFICANT WEATHER AND/OR OBSTRUCTIONS TO VISIBILITY.

COZ001>005-013-030-031-191600-
...NORTHWEST COLORADO...

CITY           SKY/WX    TMP DP  RH WIND       PRES   REMARKS
CRAIG          FAIR      66  50  56 CALM      30.31R
HAYDEN         FAIR      70  45  40 E9        30.34S
MEEKER         FAIR      68  51  54 E5        30.34R
RABBIT EARS PA FAIR      63  43  48 CALM      30.66S
STEAMBOAT SPGS FAIR      65  49  55 CALM      30.37R
WALDEN         FAIR      64  45  48 S3        30.46S
$$

COZ006>008-011-191600-
...WEST CENTRAL VALLEYS...

CITY           SKY/WX    TMP DP  RH WIND       PRES   REMARKS
GRAND JUNCTION FAIR      80  52  37 E16       30.21R
MONTROSE       FAIR      78  52  40 E14       30.30F
EAGLE          SUNNY     70  48  46 CALM      30.40S
RIFLE          FAIR      74  51  44 E7        30.28S
DELTA          FAIR      76  55  47 SW3       30.27S
NUCLA          FAIR      72  46  40 CALM      30.35F
$$

COZ017>023-064>068-191600-
...SOUTHWEST COLORADO...

CITY           SKY/WX    TMP DP  RH WIND       PRES   REMARKS
DURANGO        FAIR      72  50  45 E9        30.39F
CORTEZ         FAIR      81  52  36 VRB5      30.30S
PAGOSA SPRINGS FAIR      66  50  56 NE3       30.49S
TELLURIDE      PTSUNNY   62  49  63 CALM      30.58S
WOLF CREEK PAS FAIR      48  43  81 SW10G16   30.82S
$$

COZ009-010-012-014-032>034-037-058>063-191600-
...CENTRAL COLORADO...

CITY           SKY/WX    TMP DP  RH WIND       PRES   REMARKS
ASPEN          FAIR      64  47  53 CALM      30.45R
BUENA VISTA    FAIR      64  49  57 S3        30.47F
COPPER MTN     PTSUNNY   61  41  48 NW7       30.78S
BERTHOUD PASS  FAIR      52  36  54 NW14      30.81S
COTTONWOOD PAS FAIR      64  46  52 E9        30.60S
GUNNISON       FAIR      62  52  69 E3        30.49F
KREMMLING      FAIR      70  46  43 CALM      30.44F
LEADVILLE      FAIR      59  47  64 CALM      30.57F
MONARCH PASS   FAIR      52  43  71 W20       30.87S
SALIDA         FAIR      67  51  55 NW8       30.50S
SUNLIGHT       FAIR      59  43  55 SW7       30.71R
WILKERSON PASS PTSUNNY   55  39  54 W7        30.73S
$$

COZ069>075-191600-
...SAN LUIS VALLEY/SANGRE DE CRISTO MOUNTAINS...

CITY           SKY/WX    TMP DP  RH WIND       PRES   REMARKS
ALAMOSA        FAIR      66  53  63 CALM      30.47S
DEL NORTE      FAIR      63  54  72 CALM      30.51F
LA VETA PASS   NOT AVBL
SAGUACHE         N/A    N/A N/A N/A MISG        N/A
$$

COZ035-036-038>040-191600-
...NORTHERN COLORADO FRONT RANGE...

CITY           SKY/WX    TMP DP  RH WIND       PRES   REMARKS
DENVER INTL AP FAIR      83  50  31 W7        30.18S
DMNS CITY PARK   N/A     82  50  32 W3        30.18S
AURORA         NOT AVBL
FRONT RANGE AP MOSUNNY   84  54  34 NW9G16    30.19F
ERIE MUNI ARPT FAIR      77  53  42 CALM      30.18R
BOULDER MUN AP FAIR      77  50  38 CALM      30.18S
CENTENNIAL     FAIR      83  47  28 SW12      30.22S
BROOMFIELD     FAIR      79  46  31 CALM      30.22R
FORT COLLINS   FAIR      75  56  51 W5        30.18R
LONGMONT       FAIR      81  54  39 N7        30.18F
$$

COZ041-046-047-076>085-087-088-191600-
...PIKES PEAK/PALMER DIVIDE AND SOUTHERN FOOTHILLS...

CITY           SKY/WX    TMP DP  RH WIND       PRES   REMARKS
COLO. SPRINGS  FAIR      75  60  59 CALM      30.29R
A. F. ACADEMY  FAIR      73  60  63 S7        30.29S
SCHRIEVER AFB  FAIR      74  53  48 S5        30.29S
CHEYENNE MTN   NOT AVBL
ELLICOTT       FAIR     N/A N/A N/A SW6       30.27R
FALCON           N/A     75  53  45 S3        30.34S
FORT CARSON    FAIR      76  58  55 CALM      30.26S
LIMON          FAIR      80  62  54 SE9       30.21F
MONUMENT HILL  FAIR      77  50  38 W12       30.34S
CANON CITY     SUNNY     81  55  41 W15       30.23S
WALSENBURG     FAIR      82  52  34 W15       30.29S
TRINIDAD       FAIR      78  53  41 W3        30.29S
$$

COZ042>045-048>051-090-091-191600-
...NORTHEAST COLORADO...

CITY           SKY/WX    TMP DP  RH WIND       PRES   REMARKS
GREELEY ARPT   FAIR      77  62  59 SE6       30.16R
AKRON          FAIR      81  62  52 S7        30.15S
BURLINGTON     FAIR      83  64  52 SW16      30.15R
WRAY           NOT AVBL
YUMA           CLOUDY    68  64  88 SE5       30.12S FOG
STERLING       FAIR      77  63  61 CALM      30.10S
HOLYOKE        CLOUDY    77  72  83 S6        30.10S HAZE
FORT MORGAN    FAIR      79  58  49 S5        30.14F
$$

COZ086-089-092>099-191600-
...SOUTHEAST COLORADO...

CITY           SKY/WX    TMP DP  RH WIND       PRES   REMARKS
PUEBLO         FAIR      81  56  42 SW8       30.18S
LA JUNTA       FAIR      81  58  45 SW13      30.16S
LAMAR          FAIR      87  59  38 SW9       30.11F
SPRINGFIELD      N/A     85  56  37 SW12G20   30.19S
$$



USA.gov is the U.S. government's official web portal to all federal, state and local government web resources and services.